| time (UTC) | temp F | wind direction | speed MPH | gust MPH | rain 1hr in | rain 24hr in | rain mn in | humidity % | barometer mb |
| 20260904203032 | 71 | 204 | 0.0 | 0.0 | 0.00 | 0.00 | 0.00 | 84 | 1016.1 |
| 20260904201534 | 71 | 204 | 0.0 | 2.0 | 0.00 | 0.00 | 0.00 | 83 | 1016.2 |
| 20260904200030 | 71 | 204 | 0.0 | 2.0 | 0.00 | 0.00 | 0.00 | 83 | 1016.2 |
| 20260904194527 | 72 | 204 | 0.0 | 0.0 | 0.00 | 0.00 | 0.00 | 81 | 1016.2 |
| 20260904193027 | 72 | 204 | 0.0 | 0.0 | 0.00 | 0.00 | 0.00 | 80 | 1016.3 |
| 20260904191533 | 73 | 204 | 0.0 | 0.0 | 0.00 | 0.00 | 0.00 | 80 | 1016.3 |
| 20260904190024 | 74 | 204 | 0.0 | 0.0 | 0.00 | 0.00 | 0.00 | 78 | 1016.2 |
| 20260904184526 | 75 | 204 | 0.0 | 0.0 | 0.00 | 0.00 | 0.00 | 75 | 1016.1 |
| 20260904183023 | 76 | 204 | 0.0 | 0.0 | 0.00 | 0.00 | 0.00 | 74 | 1016.0 |
| 20260904181523 | 78 | 204 | 0.0 | 0.0 | 0.00 | 0.00 | 0.00 | 71 | 1016.0 |
| 20260904180023 | 79 | 204 | 0.0 | 0.0 | 0.00 | 0.00 | 0.00 | 68 | 1015.8 |
| 20260904174526 | 80 | 204 | 0.0 | 0.0 | 0.00 | 0.00 | 0.00 | 65 | 1015.6 |
| 20260904173023 | 82 | 204 | 0.0 | 2.0 | 0.00 | 0.00 | 0.00 | 63 | 1015.7 |
| 20260904171535 | 83 | 204 | 0.0 | 2.0 | 0.00 | 0.00 | 0.00 | 59 | 1015.6 |
| 20260904170020 | 84 | 171 | 1.0 | 3.0 | 0.00 | 0.00 | 0.00 | 58 | 1015.5 |
| 20260904164520 | 85 | 191 | 0.0 | 5.0 | 0.00 | 0.00 | 0.00 | 56 | 1015.6 |
| 20260904163021 | 86 | 187 | 1.0 | 3.0 | 0.00 | 0.00 | 0.00 | 55 | 1015.6 |
| 20260904161519 | 87 | 184 | 2.0 | 4.0 | 0.00 | 0.00 | 0.00 | 52 | 1015.6 |
| 20260904160018 | 87 | 175 | 2.0 | 5.0 | 0.00 | 0.00 | 0.00 | 52 | 1015.6 |
| 20260904154515 | 87 | 207 | 0.0 | 4.0 | 0.00 | 0.00 | 0.00 | 53 | 1015.8 |
| 20260904153015 | 88 | 161 | 2.0 | 5.0 | 0.00 | 0.00 | 0.00 | 50 | 1015.8 |
| 20260904151514 | 88 | 205 | 2.0 | 5.0 | 0.00 | 0.00 | 0.00 | 51 | 1015.8 |
| 20260904150016 | 88 | 221 | 2.0 | 6.0 | 0.00 | 0.00 | 0.00 | 51 | 1016.1 |
| 20260904144512 | 88 | 174 | 1.0 | 6.0 | 0.00 | 0.00 | 0.00 | 53 | 1016.2 |
| 20260904143026 | 89 | 184 | 0.0 | 3.0 | 0.00 | 0.00 | 0.00 | 51 | 1016.3 |
| 20260904141509 | 89 | 175 | 0.0 | 4.0 | 0.00 | 0.00 | 0.00 | 52 | 1016.4 |
| 20260904140008 | 89 | 214 | 1.0 | 3.0 | 0.00 | 0.00 | 0.00 | 52 | 1016.6 |
| 20260904134505 | 90 | 190 | 0.0 | 3.0 | 0.00 | 0.00 | 0.00 | 51 | 1016.7 |
| 20260904133003 | 88 | 203 | 1.0 | 5.0 | 0.00 | 0.00 | 0.00 | 52 | 1016.8 |
| 20260904131503 | 89 | 240 | 1.0 | 4.0 | 0.00 | 0.00 | 0.00 | 51 | 1016.9 |
| 20260904130001 | 88 | 215 | 2.0 | 5.0 | 0.00 | 0.00 | 0.00 | 51 | 1017.0 |
| 20260904124603 | 89 | 113 | 0.0 | 5.0 | 0.00 | 0.00 | 0.00 | 50 | 1017.2 |
| 20260904123056 | 87 | 221 | 1.0 | 5.0 | 0.00 | 0.00 | 0.00 | 52 | 1017.3 |
| 20260904121555 | 87 | 197 | 0.0 | 5.0 | 0.00 | 0.00 | 0.00 | 52 | 1017.5 |
| 20260904120058 | 87 | 232 | 0.0 | 5.0 | 0.00 | 0.00 | 0.00 | 55 | 1017.6 |
| 20260904114554 | 87 | 234 | 0.0 | 4.0 | 0.00 | 0.00 | 0.00 | 50 | 1017.8 |
| 20260904113054 | 87 | 219 | 1.0 | 4.0 | 0.00 | 0.00 | 0.00 | 49 | 1017.9 |
| 20260904111605 | 88 | 155 | 0.0 | 2.0 | 0.00 | 0.00 | 0.00 | 50 | 1017.9 |
| 20260904110055 | 86 | 205 | 1.0 | 5.0 | 0.00 | 0.00 | 0.00 | 51 | 1018.0 |
| 20260904104556 | 86 | 203 | 0.0 | 4.0 | 0.00 | 0.00 | 0.00 | 54 | 1018.2 |
| 20260904103049 | 87 | 172 | 0.0 | 3.0 | 0.00 | 0.00 | 0.00 | 52 | 1018.2 |
| 20260904101548 | 87 | 60 | 0.0 | 3.0 | 0.00 | 0.00 | 0.00 | 51 | 1018.2 |
| 20260904100046 | 85 | 136 | 0.0 | 2.0 | 0.00 | 0.00 | 0.00 | 55 | 1018.3 |
| 20260904094554 | 87 | 130 | 0.0 | 2.0 | 0.00 | 0.00 | 0.00 | 51 | 1018.3 |
| 20260904093042 | 85 | 138 | 0.0 | 2.0 | 0.00 | 0.00 | 0.00 | 52 | 1018.5 |
| 20260904091538 | 86 | 74 | 0.0 | 2.0 | 0.00 | 0.00 | 0.00 | 53 | 1018.4 |
| 20260904090034 | 85 | 61 | 0.0 | 2.0 | 0.00 | 0.00 | 0.00 | 54 | 1018.4 |
| 20260904084532 | 84 | 61 | 0.0 | 2.0 | 0.00 | 0.00 | 0.00 | 55 | 1018.4 |
| 20260904083031 | 84 | 53 | 0.0 | 2.0 | 0.00 | 0.00 | 0.00 | 56 | 1018.4 |
| 20260904081525 | 83 | 53 | 0.0 | 1.0 | 0.00 | 0.00 | 0.00 | 55 | 1018.4 |
| 20260904080021 | 81 | 53 | 0.0 | 2.0 | 0.00 | 0.00 | 0.00 | 61 | 1018.4 |
| 20260904074521 | 81 | 32 | 0.0 | 2.0 | 0.00 | 0.00 | 0.00 | 66 | 1018.4 |
| 20260904073012 | 79 | 32 | 0.0 | 2.0 | 0.00 | 0.00 | 0.00 | 66 | 1018.4 |
| 20260904071510 | 77 | 31 | 1.0 | 3.0 | 0.00 | 0.00 | 0.00 | 70 | 1018.4 |
| 20260904070006 | 76 | 51 | 0.0 | 2.0 | 0.00 | 0.00 | 0.00 | 72 | 1018.4 |
| 20260904064502 | 75 | 51 | 1.0 | 3.0 | 0.00 | 0.00 | 0.00 | 73 | 1018.4 |
| 20260904063100 | 74 | 51 | 0.0 | 0.0 | 0.00 | 0.00 | 0.00 | 76 | 1018.3 |
| 20260904061603 | 72 | 51 | 0.0 | 2.0 | 0.00 | 0.00 | 0.00 | 79 | 1018.3 |
| 20260904060050 | 70 | 51 | 0.0 | 1.0 | 0.00 | 0.00 | 0.00 | 83 | 1018.1 |
| 20260904054549 | 68 | 51 | 0.0 | 2.0 | 0.00 | 0.00 | 0.00 | 85 | 1018.2 |
| 20260904053043 | 65 | 51 | 0.0 | 1.0 | 0.00 | 0.00 | 0.00 | 88 | 1018.1 |
| 20260904051542 | 64 | 51 | 0.0 | 2.0 | 0.00 | 0.00 | 0.00 | 89 | 1017.9 |
| 20260904050040 | 63 | 51 | 0.0 | 0.0 | 0.00 | 0.00 | 0.00 | 89 | 1017.8 |
| 20260904044537 | 64 | 51 | 0.0 | 0.0 | 0.00 | 0.00 | 0.00 | 89 | 1017.6 |
| 20260904043045 | 64 | 51 | 0.0 | 2.0 | 0.00 | 0.00 | 0.00 | 88 | 1017.4 |
| 20260904041535 | 64 | 51 | 0.0 | 1.0 | 0.00 | 0.00 | 0.00 | 86 | 1017.4 |
| 20260904040032 | 65 | 51 | 0.0 | 0.0 | 0.00 | 0.00 | 0.00 | 86 | 1017.4 |
| 20260904034533 | 65 | 51 | 0.0 | 0.0 | 0.00 | 0.00 | 0.00 | 86 | 1017.5 |
| 20260904033031 | 65 | 51 | 0.0 | 2.0 | 0.00 | 0.00 | 0.00 | 86 | 1017.6 |
| 20260904031530 | 64 | 51 | 0.0 | 2.0 | 0.00 | 0.00 | 0.00 | 88 | 1017.5 |
| 20260904030029 | 65 | 51 | 0.0 | 1.0 | 0.00 | 0.00 | 0.00 | 87 | 1017.5 |
| 20260904024528 | 65 | 51 | 0.0 | 0.0 | 0.00 | 0.00 | 0.00 | 87 | 1017.7 |
| 20260904023028 | 66 | 51 | 0.0 | 0.0 | 0.00 | 0.00 | 0.00 | 86 | 1017.8 |
| 20260904021535 | 67 | 51 | 0.0 | 0.0 | 0.00 | 0.00 | 0.00 | 85 | 1017.8 |
| 20260904020025 | 66 | 51 | 0.0 | 2.0 | 0.00 | 0.00 | 0.00 | 86 | 1017.7 |
| 20260904014523 | 67 | 51 | 0.0 | 2.0 | 0.00 | 0.00 | 0.00 | 85 | 1017.7 |
| 20260904013022 | 67 | 51 | 0.0 | 1.0 | 0.00 | 0.00 | 0.00 | 84 | 1017.7 |
| 20260904011526 | 67 | 51 | 0.0 | 2.0 | 0.00 | 0.00 | 0.00 | 86 | 1017.7 |
| 20260904010022 | 66 | 51 | 0.0 | 2.0 | 0.00 | 0.00 | 0.00 | 87 | 1017.6 |
| 20260904004522 | 66 | 51 | 0.0 | 0.0 | 0.00 | 0.00 | 0.00 | 87 | 1017.8 |
| 20260904003019 | 67 | 51 | 0.0 | 0.0 | 0.00 | 0.00 | 0.00 | 86 | 1017.8 |
| 20260904001517 | 67 | 51 | 0.0 | 0.0 | 0.00 | 0.00 | 0.00 | 85 | 1017.8 |
| 20260904000046 | 68 | 51 | 0.0 | 0.0 | 0.00 | 0.00 | 0.00 | 84 | 1017.9 |
| 20260903234514 | 68 | 51 | 0.0 | 0.0 | 0.00 | 0.00 | 0.00 | 83 | 1017.7 |
| 20260903233011 | 69 | 51 | 0.0 | 0.0 | 0.00 | 0.00 | 0.00 | 82 | 1017.6 |
| 20260903231512 | 69 | 51 | 0.0 | 2.0 | 0.00 | 0.00 | 0.00 | 81 | 1017.4 |
| 20260903230018 | 69 | 51 | 0.0 | 0.0 | 0.00 | 0.00 | 0.00 | 82 | 1017.5 |
| 20260903224520 | 70 | 51 | 0.0 | 1.0 | 0.00 | 0.00 | 0.00 | 81 | 1017.4 |
| 20260903223005 | 70 | 51 | 0.0 | 0.0 | 0.00 | 0.00 | 0.00 | 81 | 1017.5 |
| 20260903221503 | 70 | 51 | 0.0 | 2.0 | 0.00 | 0.00 | 0.00 | 79 | 1017.5 |
| 20260903220001 | 70 | 51 | 0.0 | 2.0 | 0.00 | 0.00 | 0.00 | 79 | 1017.5 |
| 20260903214501 | 70 | 51 | 0.0 | 3.0 | 0.00 | 0.00 | 0.00 | 81 | 1017.6 |
| 20260903213104 | 70 | 276 | 0.0 | 2.0 | 0.00 | 0.00 | 0.00 | 82 | 1017.5 |
| 20260903211602 | 69 | 270 | 0.0 | 1.0 | 0.00 | 0.00 | 0.00 | 84 | 1017.4 |
| 20260903204559 | 70 | 242 | 0.0 | 1.0 | 0.00 | 0.00 | 0.00 | 84 | 1017.1 |